This demonstration page uses our WeatherBlox Daily Observations layout. Learn more.

Left ArrowRight Arrow

Hourly Observations for January 6, 2016

Temp ( °F °C ) Dew Point ( °F °C ) Humidity (%) Winds ( mph kmh ) Pressure ( in mb ) Visibility ( mi km ) Precip ( " mm )
12:51 am 00:51 Cloudy with Rain 47 8.3 45 7.2 93 93 SE 8 13 29.88 1012 3 5 0.03 0.76
1:51 am 01:51 Cloudy with Light Rain 47 8.3 45 7.2 93 93 ESE 7 11 29.86 1011 10 16 0.02 0.51
2:51 am 02:51 Cloudy 47 8.3 45 7.2 93 93 E 9 15 29.85 1011 10 16 0.01 0.25
3:51 am 03:51 Cloudy 48 8.9 44 6.7 86 86 ESE 9 15 29.83 1010 10 16 N/A
4:51 am 04:51 Cloudy with Light Rain 47 8.3 45 7.2 93 93 E 8 13 29.83 1010 10 16 N/A
5:51 am 05:51 Cloudy with Light Rain 47 8.3 44 6.7 90 90 E 5 7 29.84 1011 10 16 0.01 0.25
6:51 am 06:51 Cloudy 46 7.8 44 6.7 93 93 ENE 6 9 29.84 1011 10 16 0.02 0.51
7:51 am 07:51 Cloudy 46 7.8 43 6.1 89 89 WNW 8 13 29.87 1012 10 16 N/A
8:51 am 08:51 Cloudy with Light Rain 45 7.2 41 5 86 86 WNW 8 13 29.93 1013 10 16 N/A
9:51 am 09:51 Cloudy 47 8.3 41 5 80 80 WNW 12 19 29.94 1014 10 16 N/A
10:51 am 10:51 Cloudy 49 9.4 40 4.4 71 71 NW 12 19 29.95 1014 10 16 N/A
11:51 am 11:51 Cloudy 53 11.7 36 2.2 52 52 NW 13 20 29.92 1013 10 16 N/A
12:51 pm 12:51 Sunny 55 12.8 35 1.7 47 47 NW 22 35 29.88 1012 10 16 N/A
1:51 pm 13:51 Sunny 56 13.3 34 1.1 44 44 WNW 24 39 29.85 1011 10 16 N/A
2:51 pm 14:51 Sunny 55 12.8 31 -0.6 40 40 NW 24 39 29.86 1011 10 16 N/A
3:51 pm 15:51 Sunny 54 12.2 31 -0.6 42 42 NW 26 43 29.86 1011 10 16 N/A
4:51 pm 16:51 Sunny 51 10.6 34 1.1 52 52 NW 17 28 29.90 1013 10 16 N/A
5:51 pm 17:51 Mostly Cloudy 49 9.4 34 1.1 56 56 NNW 13 20 29.91 1013 10 16 N/A
6:51 pm 18:51 Cloudy 49 9.4 33 0.6 55 55 NNW 10 17 29.94 1014 10 16 N/A
7:51 pm 19:51 Mostly Clear 47 8.3 35 1.7 63 63 NW 9 15 29.95 1014 10 16 N/A
8:51 pm 20:51 Mostly Cloudy 47 8.3 35 1.7 63 63 WNW 8 13 29.96 1015 10 16 N/A
9:51 pm 21:51 Clear 42 5.6 36 2.2 79 79 N N/A 29.98 1015 10 16 N/A
10:24 pm 22:24 Clear with Mist and Fog 39 3.9 36 2.2 89 89 E 7 11 30.06 1018 3 4 N/A
10:33 pm 22:33 Clear 39 3.9 35 1.7 86 86 E 6 9 30.06 1018 10 16 N/A
10:51 pm 22:51 Clear 39 3.9 35 1.7 86 86 E 6 9 29.98 1015 10 16 N/A
11:51 pm 23:51 Clear 37 2.8 34 1.1 89 89 ENE 5 7 29.98 1015 10 16 N/A

Powered by AerisWeather